This demonstration page uses our WeatherBlox Daily Observations layout. Learn more.

Left ArrowRight Arrow

Hourly Observations for January 25, 2015

Temp ( °F °C ) Dew Point ( °F °C ) Humidity (%) Winds ( mph kmh ) Pressure ( in mb ) Visibility ( mi km ) Precip ( " mm )
12:53 am 00:53 Clear 35 1.7 27 -2.8 72 72 SSW 5 7 29.98 1015 10 16 0.00 0.00
1:53 am 01:53 Clear 31 -0.6 26 -3.3 82 82 Calm 29.98 1015 10 16 0.00 0.00
2:53 am 02:53 Clear 29 -1.7 26 -3.3 89 89 Calm 29.98 1015 10 16 0.00 0.00
3:53 am 03:53 Clear 30 -1.1 26 -3.3 85 85 Calm 29.96 1015 10 16 0.00 0.00
4:53 am 04:53 Clear 29 -1.7 26 -3.3 89 89 Calm 29.97 1015 10 16 0.00 0.00
5:53 am 05:53 Clear 30 -1.1 26 -3.3 85 85 SSW 3 6 29.98 1015 10 16 0.00 0.00
6:53 am 06:53 Clear 30 -1.1 26 -3.3 85 85 Calm 29.98 1015 10 16 0.00 0.00
7:53 am 07:53 Sunny 29 -1.7 25 -3.9 85 85 SW 3 6 29.98 1015 10 16 0.00 0.00
8:53 am 08:53 Sunny 32 0 28 -2.2 85 85 WSW 3 6 29.97 1015 10 16 0.00 0.00
9:53 am 09:53 Sunny 38 3.3 30 -1.1 73 73 WSW 5 7 29.95 1014 10 16 0.00 0.00
10:53 am 10:53 Sunny 44 6.7 31 -0.6 60 60 SSW 9 15 29.94 1014 10 16 0.00 0.00
11:53 am 11:53 Sunny 50 10 34 1.1 54 54 WSW 5 7 29.91 1013 10 16 0.00 0.00
12:53 pm 12:53 Sunny 55 12.8 30 -1.1 38 38 SW 10 17 29.86 1011 10 16 0.00 0.00
1:53 pm 13:53 Sunny 57 13.9 30 -1.1 36 36 SW 15 24 29.80 1009 10 16 0.00 0.00
2:53 pm 14:53 Sunny 58 14.4 30 -1.1 35 35 WSW 15 24 29.78 1008 10 16 0.00 0.00
3:53 pm 15:53 Sunny 59 15 29 -1.7 32 32 SW 14 22 29.74 1007 10 16 0.00 0.00
4:53 pm 16:53 Sunny 59 15 30 -1.1 33 33 SSW 14 22 29.73 1007 10 16 0.00 0.00
5:53 pm 17:53 Mostly Cloudy 57 13.9 32 0 39 39 SSW 7 11 29.74 1007 10 16 0.00 0.00
6:53 pm 18:53 Cloudy 56 13.3 31 -0.6 39 39 S 6 9 29.75 1008 10 16 0.00 0.00
7:53 pm 19:53 Cloudy 55 12.8 32 0 42 42 SSW 6 9 29.77 1008 10 16 0.00 0.00
8:53 pm 20:53 Cloudy 52 11.1 34 1.1 50 50 Calm 29.75 1008 10 16 0.00 0.00
9:53 pm 21:53 Cloudy with Light Rain 51 10.6 35 1.7 54 54 VRB 5 7 29.75 1008 10 16 0.00 0.03
10:53 pm 22:53 Cloudy with Light Rain 46 7.8 42 5.6 86 86 Calm 29.75 1007 10 16 0.05 1.27
11:53 pm 23:53 Mostly Clear 44 6.7 41 5 89 89 Calm 29.75 1007 10 16 0.00 0.03

Powered by AerisWeather